owner,sensor,date,latitude,longitude,vertical_datum,mass_concentration_of_oxygen_in_sea_water,qcFlag 
DISL,ioos:station:DISL:KATA:1,2016-12-01T00:00:00Z,30.2583,-88.2131,3.994,7.56,1111122 
DISL,ioos:station:DISL:KATA:1,2016-12-01T00:30:00Z,30.2583,-88.2131,4.078,7.49,1111122 
DISL,ioos:station:DISL:KATA:1,2016-12-01T01:00:00Z,30.2583,-88.2131,4.142,7.52,1111122 
DISL,ioos:station:DISL:KATA:1,2016-12-01T01:30:00Z,30.2583,-88.2131,4.168,7.51,1111122 
DISL,ioos:station:DISL:KATA:1,2016-12-01T02:00:00Z,30.2583,-88.2131,4.207,7.56,1111122 
DISL,ioos:station:DISL:KATA:1,2016-12-01T02:30:00Z,30.2583,-88.2131,4.237,7.58,1111122 
DISL,ioos:station:DISL:KATA:1,2016-12-01T03:00:00Z,30.2583,-88.2131,4.242,7.6,1111122 
DISL,ioos:station:DISL:KATA:1,2016-12-01T03:30:00Z,30.2583,-88.2131,4.24,7.68,1111122 
DISL,ioos:station:DISL:KATA:1,2016-12-01T04:00:00Z,30.2583,-88.2131,4.237,7.55,1111122 
DISL,ioos:station:DISL:KATA:1,2016-12-01T04:30:00Z,30.2583,-88.2131,4.238,7.62,1111122 
DISL,ioos:station:DISL:KATA:1,2016-12-01T05:00:00Z,30.2583,-88.2131,4.23,7.54,1111122 
DISL,ioos:station:DISL:KATA:1,2016-12-01T05:30:00Z,30.2583,-88.2131,4.212,7.56,1111122 
DISL,ioos:station:DISL:KATA:1,2016-12-01T06:00:00Z,30.2583,-88.2131,4.172,7.51,1111122 
DISL,ioos:station:DISL:KATA:1,2016-12-01T06:30:00Z,30.2583,-88.2131,4.129,7.45,1111122 
DISL,ioos:station:DISL:KATA:1,2016-12-01T07:00:00Z,30.2583,-88.2131,4.086,7.54,1111122 
DISL,ioos:station:DISL:KATA:1,2016-12-01T07:30:00Z,30.2583,-88.2131,4.064,7.5,1111122 
DISL,ioos:station:DISL:KATA:1,2016-12-01T08:00:00Z,30.2583,-88.2131,4.032,7.53,1111122 
DISL,ioos:station:DISL:KATA:1,2016-12-01T08:30:00Z,30.2583,-88.2131,3.983,7.48,1111122 
DISL,ioos:station:DISL:KATA:1,2016-12-01T09:00:00Z,30.2583,-88.2131,3.956,7.49,1111122 
DISL,ioos:station:DISL:KATA:1,2016-12-01T09:30:00Z,30.2583,-88.2131,3.89,7.51,1111122 
DISL,ioos:station:DISL:KATA:1,2016-12-01T10:00:00Z,30.2583,-88.2131,3.838,7.48,1111122 
DISL,ioos:station:DISL:KATA:1,2016-12-01T10:30:00Z,30.2583,-88.2131,3.778,7.47,1111122 
DISL,ioos:station:DISL:KATA:1,2016-12-01T11:00:00Z,30.2583,-88.2131,3.731,7.52,1111122 
DISL,ioos:station:DISL:KATA:1,2016-12-01T11:30:00Z,30.2583,-88.2131,3.679,7.58,1111122 
DISL,ioos:station:DISL:KATA:1,2016-12-01T12:00:00Z,30.2583,-88.2131,3.643,7.61,1111122 
DISL,ioos:station:DISL:KATA:1,2016-12-01T12:30:00Z,30.2583,-88.2131,3.615,7.54,1111122 
DISL,ioos:station:DISL:KATA:1,2016-12-01T13:00:00Z,30.2583,-88.2131,3.59,7.49,1111122 
DISL,ioos:station:DISL:KATA:1,2016-12-01T13:30:00Z,30.2583,-88.2131,3.581,7.55,1111122 
DISL,ioos:station:DISL:KATA:1,2016-12-01T14:00:00Z,30.2583,-88.2131,3.583,7.58,1111122 
DISL,ioos:station:DISL:KATA:1,2016-12-01T14:30:00Z,30.2583,-88.2131,3.599,7.6,1111122 
DISL,ioos:station:DISL:KATA:1,2016-12-01T15:00:00Z,30.2583,-88.2131,3.639,7.66,1111122 
DISL,ioos:station:DISL:KATA:1,2016-12-01T15:30:00Z,30.2583,-88.2131,3.681,7.57,1111122 
DISL,ioos:station:DISL:KATA:1,2016-12-01T16:00:00Z,30.2583,-88.2131,3.715,7.53,1111122 
DISL,ioos:station:DISL:KATA:1,2016-12-01T16:30:00Z,30.2583,-88.2131,3.746,7.56,1111122 
DISL,ioos:station:DISL:KATA:1,2016-12-01T17:00:00Z,30.2583,-88.2131,3.769,7.59,1111122 
DISL,ioos:station:DISL:KATA:1,2016-12-01T17:30:00Z,30.2583,-88.2131,3.784,7.55,1111122 
DISL,ioos:station:DISL:KATA:1,2016-12-01T18:00:00Z,30.2583,-88.2131,3.797,7.5,1111122 
DISL,ioos:station:DISL:KATA:1,2016-12-01T18:30:00Z,30.2583,-88.2131,3.806,7.41,1111122 
DISL,ioos:station:DISL:KATA:1,2016-12-01T19:00:00Z,30.2583,-88.2131,3.82,7.39,1111122 
DISL,ioos:station:DISL:KATA:1,2016-12-01T19:30:00Z,30.2583,-88.2131,3.839,7.33,1111122 
DISL,ioos:station:DISL:KATA:1,2016-12-01T20:00:00Z,30.2583,-88.2131,3.863,7.46,1111122 
DISL,ioos:station:DISL:KATA:1,2016-12-01T20:30:00Z,30.2583,-88.2131,3.883,7.6,1111122 
DISL,ioos:station:DISL:KATA:1,2016-12-01T21:00:00Z,30.2583,-88.2131,3.909,7.63,1111122 
DISL,ioos:station:DISL:KATA:1,2016-12-01T21:30:00Z,30.2583,-88.2131,3.923,7.66,1111122 
DISL,ioos:station:DISL:KATA:1,2016-12-01T22:00:00Z,30.2583,-88.2131,3.938,7.61,1111122 
DISL,ioos:station:DISL:KATA:1,2016-12-01T22:30:00Z,30.2583,-88.2131,3.94,7.76,1111122 
DISL,ioos:station:DISL:KATA:1,2016-12-01T23:00:00Z,30.2583,-88.2131,3.943,7.78,1111122 
DISL,ioos:station:DISL:KATA:1,2016-12-01T23:30:00Z,30.2583,-88.2131,3.953,7.91,1111122 
DISL,ioos:station:DISL:KATA:1,2016-12-02T00:00:00Z,30.2583,-88.2131,3.961,7.92,1111122 
DISL,ioos:station:DISL:KATA:1,2016-12-02T00:30:00Z,30.2583,-88.2131,3.985,8.01,1111122 
DISL,ioos:station:DISL:KATA:1,2016-12-02T01:00:00Z,30.2583,-88.2131,4.001,8.09,1111122 
DISL,ioos:station:DISL:KATA:1,2016-12-02T01:30:00Z,30.2583,-88.2131,4.025,8.11,1111122 
DISL,ioos:station:DISL:KATA:1,2016-12-02T02:00:00Z,30.2583,-88.2131,4.058,8.09,1111122 
DISL,ioos:station:DISL:KATA:1,2016-12-02T02:30:00Z,30.2583,-88.2131,4.077,8.11,1111122 
DISL,ioos:station:DISL:KATA:1,2016-12-02T03:00:00Z,30.2583,-88.2131,4.1,8.15,1111122 
DISL,ioos:station:DISL:KATA:1,2016-12-02T03:30:00Z,30.2583,-88.2131,4.127,8.09,1111122 
DISL,ioos:station:DISL:KATA:1,2016-12-02T04:00:00Z,30.2583,-88.2131,4.137,8.07,1111122 
DISL,ioos:station:DISL:KATA:1,2016-12-02T04:30:00Z,30.2583,-88.2131,4.131,8.05,1111122 
DISL,ioos:station:DISL:KATA:1,2016-12-02T05:00:00Z,30.2583,-88.2131,4.115,8.01,1111122 
DISL,ioos:station:DISL:KATA:1,2016-12-02T05:30:00Z,30.2583,-88.2131,4.079,7.88,1111122 
DISL,ioos:station:DISL:KATA:1,2016-12-02T06:00:00Z,30.2583,-88.2131,4.041,7.71,1111122 
DISL,ioos:station:DISL:KATA:1,2016-12-02T06:30:00Z,30.2583,-88.2131,4.011,7.95,1111122 
DISL,ioos:station:DISL:KATA:1,2016-12-02T07:00:00Z,30.2583,-88.2131,3.978,7.9,1111122 
DISL,ioos:station:DISL:KATA:1,2016-12-02T07:30:00Z,30.2583,-88.2131,3.942,7.94,1111122 
DISL,ioos:station:DISL:KATA:1,2016-12-02T08:00:00Z,30.2583,-88.2131,3.914,7.96,1111122 
DISL,ioos:station:DISL:KATA:1,2016-12-02T08:30:00Z,30.2583,-88.2131,3.896,7.97,1111122 
DISL,ioos:station:DISL:KATA:1,2016-12-02T09:00:00Z,30.2583,-88.2131,3.86,7.93,1111122 
DISL,ioos:station:DISL:KATA:1,2016-12-02T09:30:00Z,30.2583,-88.2131,3.825,7.89,1111122 
DISL,ioos:station:DISL:KATA:1,2016-12-02T10:00:00Z,30.2583,-88.2131,3.783,7.95,1111122 
DISL,ioos:station:DISL:KATA:1,2016-12-02T10:30:00Z,30.2583,-88.2131,3.738,7.86,1111122 
DISL,ioos:station:DISL:KATA:1,2016-12-02T11:00:00Z,30.2583,-88.2131,3.69,7.87,1111122 
DISL,ioos:station:DISL:KATA:1,2016-12-02T11:30:00Z,30.2583,-88.2131,3.637,7.83,1111122 
DISL,ioos:station:DISL:KATA:1,2016-12-02T12:00:00Z,30.2583,-88.2131,3.587,7.83,1111122 
DISL,ioos:station:DISL:KATA:1,2016-12-02T12:30:00Z,30.2583,-88.2131,3.542,7.9,1111122 
DISL,ioos:station:DISL:KATA:1,2016-12-02T13:00:00Z,30.2583,-88.2131,3.512,7.9,1111122 
DISL,ioos:station:DISL:KATA:1,2016-12-02T13:30:00Z,30.2583,-88.2131,3.499,7.85,1111122 
DISL,ioos:station:DISL:KATA:1,2016-12-02T14:00:00Z,30.2583,-88.2131,3.49,7.84,1111122 
DISL,ioos:station:DISL:KATA:1,2016-12-02T14:30:00Z,30.2583,-88.2131,3.491,7.85,1111122 
DISL,ioos:station:DISL:KATA:1,2016-12-02T15:00:00Z,30.2583,-88.2131,3.508,7.89,1111122 
DISL,ioos:station:DISL:KATA:1,2016-12-02T15:30:00Z,30.2583,-88.2131,3.531,7.85,1111122 
DISL,ioos:station:DISL:KATA:1,2016-12-02T16:00:00Z,30.2583,-88.2131,3.548,7.84,1111122 
DISL,ioos:station:DISL:KATA:1,2016-12-02T16:30:00Z,30.2583,-88.2131,3.567,7.84,1111122 
DISL,ioos:station:DISL:KATA:1,2016-12-02T17:00:00Z,30.2583,-88.2131,3.581,7.81,1111122 
DISL,ioos:station:DISL:KATA:1,2016-12-02T17:30:00Z,30.2583,-88.2131,3.604,7.78,1111122 
DISL,ioos:station:DISL:KATA:1,2016-12-02T18:00:00Z,30.2583,-88.2131,3.636,7.63,1111122 
DISL,ioos:station:DISL:KATA:1,2016-12-02T18:30:00Z,30.2583,-88.2131,3.655,7.76,1111122 
DISL,ioos:station:DISL:KATA:1,2016-12-02T19:00:00Z,30.2583,-88.2131,3.676,7.71,1111122 
DISL,ioos:station:DISL:KATA:1,2016-12-02T19:30:00Z,30.2583,-88.2131,3.689,7.7,1111122 
DISL,ioos:station:DISL:KATA:1,2016-12-02T20:00:00Z,30.2583,-88.2131,3.716,7.75,1111122 
DISL,ioos:station:DISL:KATA:1,2016-12-02T20:30:00Z,30.2583,-88.2131,3.741,7.88,1111122 
DISL,ioos:station:DISL:KATA:1,2016-12-02T21:00:00Z,30.2583,-88.2131,3.77,7.97,1111122 
DISL,ioos:station:DISL:KATA:1,2016-12-02T21:30:00Z,30.2583,-88.2131,3.798,7.94,1111122 
DISL,ioos:station:DISL:KATA:1,2016-12-02T22:00:00Z,30.2583,-88.2131,3.819,7.94,1111122 
DISL,ioos:station:DISL:KATA:1,2016-12-02T22:30:00Z,30.2583,-88.2131,3.846,7.9,1111122 
DISL,ioos:station:DISL:KATA:1,2016-12-02T23:00:00Z,30.2583,-88.2131,3.862,7.93,1111122 
DISL,ioos:station:DISL:KATA:1,2016-12-02T23:30:00Z,30.2583,-88.2131,3.884,7.96,1111122 
DISL,ioos:station:DISL:KATA:1,2016-12-03T00:00:00Z,30.2583,-88.2131,3.911,7.94,1111122 
DISL,ioos:station:DISL:KATA:1,2016-12-03T00:30:00Z,30.2583,-88.2131,3.926,7.94,1111122 
DISL,ioos:station:DISL:KATA:1,2016-12-03T01:00:00Z,30.2583,-88.2131,3.939,7.91,1111122 
DISL,ioos:station:DISL:KATA:1,2016-12-03T01:30:00Z,30.2583,-88.2131,3.968,7.95,1111122 
DISL,ioos:station:DISL:KATA:1,2016-12-03T02:00:00Z,30.2583,-88.2131,3.978,7.88,1111122 
DISL,ioos:station:DISL:KATA:1,2016-12-03T02:30:00Z,30.2583,-88.2131,4.019,7.89,1111122 
DISL,ioos:station:DISL:KATA:1,2016-12-03T03:00:00Z,30.2583,-88.2131,4.058,7.89,1111122 
DISL,ioos:station:DISL:KATA:1,2016-12-03T03:30:00Z,30.2583,-88.2131,4.073,7.86,1111122 
DISL,ioos:station:DISL:KATA:1,2016-12-03T04:00:00Z,30.2583,-88.2131,4.095,7.94,1111122 
DISL,ioos:station:DISL:KATA:1,2016-12-03T04:30:00Z,30.2583,-88.2131,4.106,7.83,1111122 
DISL,ioos:station:DISL:KATA:1,2016-12-03T05:00:00Z,30.2583,-88.2131,4.116,7.91,1111122 
DISL,ioos:station:DISL:KATA:1,2016-12-03T05:30:00Z,30.2583,-88.2131,4.092,7.78,1111122 
DISL,ioos:station:DISL:KATA:1,2016-12-03T06:00:00Z,30.2583,-88.2131,4.054,7.75,1111122 
DISL,ioos:station:DISL:KATA:1,2016-12-03T06:30:00Z,30.2583,-88.2131,4.026,7.68,1111122 
DISL,ioos:station:DISL:KATA:1,2016-12-03T07:00:00Z,30.2583,-88.2131,3.992,7.91,1111122 
DISL,ioos:station:DISL:KATA:1,2016-12-03T07:30:00Z,30.2583,-88.2131,3.947,7.91,1111122 
DISL,ioos:station:DISL:KATA:1,2016-12-03T08:00:00Z,30.2583,-88.2131,3.914,7.96,1111122 
DISL,ioos:station:DISL:KATA:1,2016-12-03T08:30:00Z,30.2583,-88.2131,3.901,7.95,1111122 
DISL,ioos:station:DISL:KATA:1,2016-12-03T09:00:00Z,30.2583,-88.2131,3.902,7.95,1111122 
DISL,ioos:station:DISL:KATA:1,2016-12-03T09:30:00Z,30.2583,-88.2131,3.895,7.93,1111122 
DISL,ioos:station:DISL:KATA:1,2016-12-03T10:00:00Z,30.2583,-88.2131,3.841,7.95,1111122 
DISL,ioos:station:DISL:KATA:1,2016-12-03T10:30:00Z,30.2583,-88.2131,3.789,7.97,1111122 
DISL,ioos:station:DISL:KATA:1,2016-12-03T11:00:00Z,30.2583,-88.2131,3.741,7.98,1111122 
DISL,ioos:station:DISL:KATA:1,2016-12-03T11:30:00Z,30.2583,-88.2131,3.707,7.92,1111122 
DISL,ioos:station:DISL:KATA:1,2016-12-03T12:00:00Z,30.2583,-88.2131,3.669,7.95,1111122 
DISL,ioos:station:DISL:KATA:1,2016-12-03T12:30:00Z,30.2583,-88.2131,3.655,7.95,1111122 
DISL,ioos:station:DISL:KATA:1,2016-12-03T13:00:00Z,30.2583,-88.2131,3.641,7.95,1111122 
DISL,ioos:station:DISL:KATA:1,2016-12-03T13:30:00Z,30.2583,-88.2131,3.636,8.04,1111122 
DISL,ioos:station:DISL:KATA:1,2016-12-03T14:00:00Z,30.2583,-88.2131,3.63,8.07,1111122 
DISL,ioos:station:DISL:KATA:1,2016-12-03T14:30:00Z,30.2583,-88.2131,3.618,8.07,1111122 
DISL,ioos:station:DISL:KATA:1,2016-12-03T15:00:00Z,30.2583,-88.2131,3.604,8.07,1111122 
DISL,ioos:station:DISL:KATA:1,2016-12-03T15:30:00Z,30.2583,-88.2131,3.595,8.1,1111122 
DISL,ioos:station:DISL:KATA:1,2016-12-03T16:00:00Z,30.2583,-88.2131,3.573,8.07,1111122 
DISL,ioos:station:DISL:KATA:1,2016-12-03T16:30:00Z,30.2583,-88.2131,3.569,8.01,1111122 
DISL,ioos:station:DISL:KATA:1,2016-12-03T17:00:00Z,30.2583,-88.2131,3.568,8.07,1111122 
DISL,ioos:station:DISL:KATA:1,2016-12-03T17:30:00Z,30.2583,-88.2131,3.568,8.07,1111122 
DISL,ioos:station:DISL:KATA:1,2016-12-03T18:00:00Z,30.2583,-88.2131,3.605,8.05,1111122 
DISL,ioos:station:DISL:KATA:1,2016-12-03T18:30:00Z,30.2583,-88.2131,3.642,8.01,1111122 
DISL,ioos:station:DISL:KATA:1,2016-12-03T19:00:00Z,30.2583,-88.2131,3.7,8.05,1111122 
DISL,ioos:station:DISL:KATA:1,2016-12-03T19:30:00Z,30.2583,-88.2131,3.735,8.1,1111122 
DISL,ioos:station:DISL:KATA:1,2016-12-03T20:00:00Z,30.2583,-88.2131,3.742,8.03,1111122 
DISL,ioos:station:DISL:KATA:1,2016-12-03T20:30:00Z,30.2583,-88.2131,3.768,8.07,1111122 
DISL,ioos:station:DISL:KATA:1,2016-12-03T21:00:00Z,30.2583,-88.2131,3.779,8.02,1111122 
DISL,ioos:station:DISL:KATA:1,2016-12-03T21:30:00Z,30.2583,-88.2131,3.791,8.0,1111122 
DISL,ioos:station:DISL:KATA:1,2016-12-03T22:00:00Z,30.2583,-88.2131,3.807,8.02,1111122 
DISL,ioos:station:DISL:KATA:1,2016-12-03T22:30:00Z,30.2583,-88.2131,3.821,8.02,1111122 
DISL,ioos:station:DISL:KATA:1,2016-12-03T23:00:00Z,30.2583,-88.2131,3.839,7.99,1111122 
DISL,ioos:station:DISL:KATA:1,2016-12-03T23:30:00Z,30.2583,-88.2131,3.862,7.92,1111122 
DISL,ioos:station:DISL:KATA:1,2016-12-04T00:00:00Z,30.2583,-88.2131,3.869,7.95,1111122 
DISL,ioos:station:DISL:KATA:1,2016-12-04T00:30:00Z,30.2583,-88.2131,3.877,7.93,1111122 
DISL,ioos:station:DISL:KATA:1,2016-12-04T01:00:00Z,30.2583,-88.2131,3.926,7.95,1111122 
DISL,ioos:station:DISL:KATA:1,2016-12-04T01:30:00Z,30.2583,-88.2131,3.959,8.13,1111122 
DISL,ioos:station:DISL:KATA:1,2016-12-04T02:00:00Z,30.2583,-88.2131,4.013,8.06,1111122 
DISL,ioos:station:DISL:KATA:1,2016-12-04T02:30:00Z,30.2583,-88.2131,4.053,8.02,1111122 
DISL,ioos:station:DISL:KATA:1,2016-12-04T03:00:00Z,30.2583,-88.2131,4.068,8.04,1111122 
DISL,ioos:station:DISL:KATA:1,2016-12-04T03:30:00Z,30.2583,-88.2131,4.078,8.03,1111122 
DISL,ioos:station:DISL:KATA:1,2016-12-04T04:00:00Z,30.2583,-88.2131,4.085,7.95,1111122 
DISL,ioos:station:DISL:KATA:1,2016-12-04T04:30:00Z,30.2583,-88.2131,4.129,7.96,1111122 
DISL,ioos:station:DISL:KATA:1,2016-12-04T05:00:00Z,30.2583,-88.2131,4.133,7.95,1111122 
DISL,ioos:station:DISL:KATA:1,2016-12-04T05:30:00Z,30.2583,-88.2131,4.161,7.93,1111122 
DISL,ioos:station:DISL:KATA:1,2016-12-04T06:00:00Z,30.2583,-88.2131,4.171,7.93,1111122 
DISL,ioos:station:DISL:KATA:1,2016-12-04T06:30:00Z,30.2583,-88.2131,4.185,7.91,1111122 
DISL,ioos:station:DISL:KATA:1,2016-12-04T07:00:00Z,30.2583,-88.2131,4.191,7.98,1111122 
DISL,ioos:station:DISL:KATA:1,2016-12-04T07:30:00Z,30.2583,-88.2131,4.205,7.99,1111122 
DISL,ioos:station:DISL:KATA:1,2016-12-04T08:00:00Z,30.2583,-88.2131,4.222,7.99,1111122 
DISL,ioos:station:DISL:KATA:1,2016-12-04T08:30:00Z,30.2583,-88.2131,4.223,7.97,1111122 
DISL,ioos:station:DISL:KATA:1,2016-12-04T09:00:00Z,30.2583,-88.2131,4.233,7.95,1111122 
DISL,ioos:station:DISL:KATA:1,2016-12-04T09:30:00Z,30.2583,-88.2131,4.218,7.98,1111122 
DISL,ioos:station:DISL:KATA:1,2016-12-04T10:00:00Z,30.2583,-88.2131,4.179,7.95,1111122 
DISL,ioos:station:DISL:KATA:1,2016-12-04T10:30:00Z,30.2583,-88.2131,4.146,7.95,1111122 
DISL,ioos:station:DISL:KATA:1,2016-12-04T11:00:00Z,30.2583,-88.2131,4.095,7.96,1111122 
DISL,ioos:station:DISL:KATA:1,2016-12-04T11:30:00Z,30.2583,-88.2131,4.043,7.98,1111122 
DISL,ioos:station:DISL:KATA:1,2016-12-04T12:00:00Z,30.2583,-88.2131,3.998,7.92,1111122 
DISL,ioos:station:DISL:KATA:1,2016-12-04T12:30:00Z,30.2583,-88.2131,3.958,7.92,1111122 
DISL,ioos:station:DISL:KATA:1,2016-12-04T13:00:00Z,30.2583,-88.2131,3.988,7.94,1111122 
DISL,ioos:station:DISL:KATA:1,2016-12-04T13:30:00Z,30.2583,-88.2131,3.999,7.89,1111122 
DISL,ioos:station:DISL:KATA:1,2016-12-04T14:00:00Z,30.2583,-88.2131,4.118,7.66,1111122 
DISL,ioos:station:DISL:KATA:1,2016-12-04T14:30:00Z,30.2583,-88.2131,4.07,7.86,1111122 
DISL,ioos:station:DISL:KATA:1,2016-12-04T15:00:00Z,30.2583,-88.2131,3.891,7.86,1111122 
DISL,ioos:station:DISL:KATA:1,2016-12-04T15:30:00Z,30.2583,-88.2131,3.825,7.89,1111122 
DISL,ioos:station:DISL:KATA:1,2016-12-04T16:00:00Z,30.2583,-88.2131,3.839,7.87,1111122 
DISL,ioos:station:DISL:KATA:1,2016-12-04T16:30:00Z,30.2583,-88.2131,3.782,7.89,1111122 
DISL,ioos:station:DISL:KATA:1,2016-12-04T17:00:00Z,30.2583,-88.2131,3.768,7.9,1111122 
DISL,ioos:station:DISL:KATA:1,2016-12-04T17:30:00Z,30.2583,-88.2131,3.785,7.93,1111122 
DISL,ioos:station:DISL:KATA:1,2016-12-04T18:00:00Z,30.2583,-88.2131,3.809,7.97,1111122 
DISL,ioos:station:DISL:KATA:1,2016-12-04T18:30:00Z,30.2583,-88.2131,3.846,7.99,1111122 
DISL,ioos:station:DISL:KATA:1,2016-12-04T19:00:00Z,30.2583,-88.2131,3.868,7.9,1111122 
DISL,ioos:station:DISL:KATA:1,2016-12-04T19:30:00Z,30.2583,-88.2131,3.889,8.01,1111122 
DISL,ioos:station:DISL:KATA:1,2016-12-04T20:00:00Z,30.2583,-88.2131,3.921,7.82,1111122 
DISL,ioos:station:DISL:KATA:1,2016-12-04T20:30:00Z,30.2583,-88.2131,3.942,7.76,1111122 
DISL,ioos:station:DISL:KATA:1,2016-12-04T21:00:00Z,30.2583,-88.2131,3.958,7.77,1111122 
DISL,ioos:station:DISL:KATA:1,2016-12-04T21:30:00Z,30.2583,-88.2131,3.968,7.74,1111122 
DISL,ioos:station:DISL:KATA:1,2016-12-04T22:00:00Z,30.2583,-88.2131,4.048,7.73,1111122 
DISL,ioos:station:DISL:KATA:1,2016-12-04T22:30:00Z,30.2583,-88.2131,4.004,7.76,1111122 
DISL,ioos:station:DISL:KATA:1,2016-12-04T23:00:00Z,30.2583,-88.2131,4.028,7.82,1111122 
DISL,ioos:station:DISL:KATA:1,2016-12-04T23:30:00Z,30.2583,-88.2131,4.016,7.63,1111122 
DISL,ioos:station:DISL:KATA:1,2016-12-05T00:00:00Z,30.2583,-88.2131,3.999,7.64,1111122 
DISL,ioos:station:DISL:KATA:1,2016-12-05T00:30:00Z,30.2583,-88.2131,4.025,7.62,1111122 
DISL,ioos:station:DISL:KATA:1,2016-12-05T01:00:00Z,30.2583,-88.2131,4.008,7.6,1111122 
DISL,ioos:station:DISL:KATA:1,2016-12-05T01:30:00Z,30.2583,-88.2131,4.021,7.52,1111122 
DISL,ioos:station:DISL:KATA:1,2016-12-05T02:00:00Z,30.2583,-88.2131,4.034,7.45,1111122 
DISL,ioos:station:DISL:KATA:1,2016-12-05T02:30:00Z,30.2583,-88.2131,4.06,7.43,1111122 
DISL,ioos:station:DISL:KATA:1,2016-12-05T03:00:00Z,30.2583,-88.2131,4.078,7.35,1111122 
DISL,ioos:station:DISL:KATA:1,2016-12-05T03:30:00Z,30.2583,-88.2131,4.09,7.24,1111122 
DISL,ioos:station:DISL:KATA:1,2016-12-05T04:00:00Z,30.2583,-88.2131,4.112,7.07,1111122 
DISL,ioos:station:DISL:KATA:1,2016-12-05T04:30:00Z,30.2583,-88.2131,4.112,7.03,1111122 
DISL,ioos:station:DISL:KATA:1,2016-12-05T05:00:00Z,30.2583,-88.2131,4.114,6.47,1111122 
DISL,ioos:station:DISL:KATA:1,2016-12-05T05:30:00Z,30.2583,-88.2131,4.133,6.85,1111122 
DISL,ioos:station:DISL:KATA:1,2016-12-05T06:00:00Z,30.2583,-88.2131,4.154,7.1,1111122 
DISL,ioos:station:DISL:KATA:1,2016-12-05T06:30:00Z,30.2583,-88.2131,4.187,7.19,1111122 
DISL,ioos:station:DISL:KATA:1,2016-12-05T07:00:00Z,30.2583,-88.2131,4.2,7.13,1111122 
DISL,ioos:station:DISL:KATA:1,2016-12-05T07:30:00Z,30.2583,-88.2131,4.179,7.19,1111122 
DISL,ioos:station:DISL:KATA:1,2016-12-05T08:00:00Z,30.2583,-88.2131,4.187,7.08,1111122 
DISL,ioos:station:DISL:KATA:1,2016-12-05T08:30:00Z,30.2583,-88.2131,4.173,7.34,1111122 
DISL,ioos:station:DISL:KATA:1,2016-12-05T09:00:00Z,30.2583,-88.2131,4.182,7.33,1111122 
DISL,ioos:station:DISL:KATA:1,2016-12-05T09:30:00Z,30.2583,-88.2131,4.206,7.31,1111122 
DISL,ioos:station:DISL:KATA:1,2016-12-05T10:00:00Z,30.2583,-88.2131,4.205,6.92,1111122 
DISL,ioos:station:DISL:KATA:1,2016-12-05T10:30:00Z,30.2583,-88.2131,4.164,7.11,1111122 
DISL,ioos:station:DISL:KATA:1,2016-12-05T11:00:00Z,30.2583,-88.2131,4.115,7.0,1111122 
DISL,ioos:station:DISL:KATA:1,2016-12-05T11:30:00Z,30.2583,-88.2131,4.074,7.02,1111122 
DISL,ioos:station:DISL:KATA:1,2016-12-05T12:00:00Z,30.2583,-88.2131,4.021,7.1,1111122 
DISL,ioos:station:DISL:KATA:1,2016-12-05T12:30:00Z,30.2583,-88.2131,3.965,7.12,1111122 
DISL,ioos:station:DISL:KATA:1,2016-12-05T13:00:00Z,30.2583,-88.2131,3.919,7.27,1111122 
DISL,ioos:station:DISL:KATA:1,2016-12-05T13:30:00Z,30.2583,-88.2131,3.857,7.57,1111122 
DISL,ioos:station:DISL:KATA:1,2016-12-05T14:00:00Z,30.2583,-88.2131,3.8,7.63,1111122 
DISL,ioos:station:DISL:KATA:1,2016-12-05T14:30:00Z,30.2583,-88.2131,3.776,7.87,1111122 
DISL,ioos:station:DISL:KATA:1,2016-12-05T15:00:00Z,30.2583,-88.2131,3.754,7.81,1111122 
DISL,ioos:station:DISL:KATA:1,2016-12-05T15:30:00Z,30.2583,-88.2131,3.75,7.82,1111122 
DISL,ioos:station:DISL:KATA:1,2016-12-05T16:00:00Z,30.2583,-88.2131,3.755,7.87,1111122 
DISL,ioos:station:DISL:KATA:1,2016-12-05T16:30:00Z,30.2583,-88.2131,3.778,7.92,1111122 
DISL,ioos:station:DISL:KATA:1,2016-12-05T17:00:00Z,30.2583,-88.2131,3.819,7.94,1111122 
DISL,ioos:station:DISL:KATA:1,2016-12-05T17:30:00Z,30.2583,-88.2131,3.844,7.99,1111122 
DISL,ioos:station:DISL:KATA:1,2016-12-05T18:00:00Z,30.2583,-88.2131,3.883,7.99,1111122 
DISL,ioos:station:DISL:KATA:1,2016-12-05T18:30:00Z,30.2583,-88.2131,3.889,8.01,1111122 
DISL,ioos:station:DISL:KATA:1,2016-12-05T19:00:00Z,30.2583,-88.2131,3.889,7.97,1111122 
DISL,ioos:station:DISL:KATA:1,2016-12-05T19:30:00Z,30.2583,-88.2131,3.917,7.99,1111122 
DISL,ioos:station:DISL:KATA:1,2016-12-05T20:00:00Z,30.2583,-88.2131,3.959,7.87,1111122 
DISL,ioos:station:DISL:KATA:1,2016-12-05T20:30:00Z,30.2583,-88.2131,3.996,7.96,1111122 
DISL,ioos:station:DISL:KATA:1,2016-12-05T21:00:00Z,30.2583,-88.2131,4.037,7.93,1111122 
DISL,ioos:station:DISL:KATA:1,2016-12-05T21:30:00Z,30.2583,-88.2131,4.066,7.86,1111122 
DISL,ioos:station:DISL:KATA:1,2016-12-05T22:00:00Z,30.2583,-88.2131,4.066,7.74,1111122 
DISL,ioos:station:DISL:KATA:1,2016-12-05T22:30:00Z,30.2583,-88.2131,4.048,7.76,1111122 
DISL,ioos:station:DISL:KATA:1,2016-12-05T23:00:00Z,30.2583,-88.2131,4.034,7.47,1111122 
DISL,ioos:station:DISL:KATA:1,2016-12-05T23:30:00Z,30.2583,-88.2131,3.992,7.63,1111122 
DISL,ioos:station:DISL:KATA:1,2016-12-06T00:00:00Z,30.2583,-88.2131,3.925,7.98,1111122 
DISL,ioos:station:DISL:KATA:1,2016-12-06T00:30:00Z,30.2583,-88.2131,3.922,8.02,1111122 
DISL,ioos:station:DISL:KATA:1,2016-12-06T01:00:00Z,30.2583,-88.2131,3.91,8.08,1111122 
DISL,ioos:station:DISL:KATA:1,2016-12-06T01:30:00Z,30.2583,-88.2131,3.938,8.05,1111122 
DISL,ioos:station:DISL:KATA:1,2016-12-06T02:00:00Z,30.2583,-88.2131,3.993,7.78,1111122 
DISL,ioos:station:DISL:KATA:1,2016-12-06T02:30:00Z,30.2583,-88.2131,4.053,7.89,1111122 
DISL,ioos:station:DISL:KATA:1,2016-12-06T03:00:00Z,30.2583,-88.2131,4.107,7.92,1111122 
DISL,ioos:station:DISL:KATA:1,2016-12-06T03:30:00Z,30.2583,-88.2131,4.156,7.86,1111122 
DISL,ioos:station:DISL:KATA:1,2016-12-06T04:00:00Z,30.2583,-88.2131,4.213,7.81,1111122 
DISL,ioos:station:DISL:KATA:1,2016-12-06T04:30:00Z,30.2583,-88.2131,4.246,7.86,1111122 
DISL,ioos:station:DISL:KATA:1,2016-12-06T05:00:00Z,30.2583,-88.2131,4.267,7.81,1111122 
DISL,ioos:station:DISL:KATA:1,2016-12-06T05:30:00Z,30.2583,-88.2131,4.302,7.78,1111122 
DISL,ioos:station:DISL:KATA:1,2016-12-06T06:00:00Z,30.2583,-88.2131,4.302,7.68,1111122 
DISL,ioos:station:DISL:KATA:1,2016-12-06T06:30:00Z,30.2583,-88.2131,4.293,7.74,1111122 
DISL,ioos:station:DISL:KATA:1,2016-12-06T07:00:00Z,30.2583,-88.2131,4.327,7.68,1111122 
DISL,ioos:station:DISL:KATA:1,2016-12-06T07:30:00Z,30.2583,-88.2131,4.34,7.62,1111122 
DISL,ioos:station:DISL:KATA:1,2016-12-06T08:00:00Z,30.2583,-88.2131,4.308,7.53,1111122 
DISL,ioos:station:DISL:KATA:1,2016-12-06T08:30:00Z,30.2583,-88.2131,4.318,7.59,1111122 
DISL,ioos:station:DISL:KATA:1,2016-12-06T09:00:00Z,30.2583,-88.2131,4.315,7.69,1111122 
DISL,ioos:station:DISL:KATA:1,2016-12-06T09:30:00Z,30.2583,-88.2131,4.352,7.72,1111122 
DISL,ioos:station:DISL:KATA:1,2016-12-06T10:00:00Z,30.2583,-88.2131,4.306,7.68,1111122 
DISL,ioos:station:DISL:KATA:1,2016-12-06T10:30:00Z,30.2583,-88.2131,4.25,7.55,1111122 
DISL,ioos:station:DISL:KATA:1,2016-12-06T11:00:00Z,30.2583,-88.2131,4.322,7.48,1111122 
DISL,ioos:station:DISL:KATA:1,2016-12-06T11:30:00Z,30.2583,-88.2131,4.286,7.48,1111122 
DISL,ioos:station:DISL:KATA:1,2016-12-06T12:00:00Z,30.2583,-88.2131,4.22,7.43,1111122 
DISL,ioos:station:DISL:KATA:1,2016-12-06T12:30:00Z,30.2583,-88.2131,4.314,7.32,1111122 
DISL,ioos:station:DISL:KATA:1,2016-12-06T13:00:00Z,30.2583,-88.2131,4.12,7.52,1111122 
DISL,ioos:station:DISL:KATA:1,2016-12-06T13:30:00Z,30.2583,-88.2131,4.039,7.49,1111122 
DISL,ioos:station:DISL:KATA:1,2016-12-06T14:00:00Z,30.2583,-88.2131,3.983,7.53,1111122 
DISL,ioos:station:DISL:KATA:1,2016-12-06T14:30:00Z,30.2583,-88.2131,3.823,7.58,1111122 
DISL,ioos:station:DISL:KATA:1,2016-12-06T15:00:00Z,30.2583,-88.2131,3.889,7.59,1111122 
DISL,ioos:station:DISL:KATA:1,2016-12-06T15:30:00Z,30.2583,-88.2131,3.761,7.6,1111122 